Starlink 1669

operational
NORAD ID: 47624 Int'l Des: 2021-012 Owner: SPXS Country: US Constellation: starlink
LEOCIRCULAR

About Starlink 1669

Description loading...

Live Position

Loading 3D Globe...

Upcoming Passes

Altitude History

Altitude vs Time

uPlot chart will show altitude changes over time

Two-Line Element Set

1 47624U 21012E 25301.24049739 .00088750 00000-0 23633-2 0 9995
2 47624 53.0500 270.2257 0010140 31.7122 328.4490 15.37416714260541
Epoch: Oct 28, 2025 • Age: 26 hours

Current Status

Altitude 472.8 km
Velocity 7.63 km/s
Sub-Earth Point -39.87°S, 30.24°W
Launch Date Feb 16, 2021
Age 4.6 years
Type internet

Technical Details

Classification Payload
Mass 260.00 kg
Dry Mass 248.00 kg
Total Mass 260.00 kg
Length 0.20 m
Diameter 2.80 m
Span 9.00 m
Shape Box + pan
Manufacturer SPXS
Bus Type Starlink
Phase Status In Orbit
Owner/State SPXS/US

Large Constellations

Loading constellations...